Date String (YYYY-MM-DD hh:mm:ss) UTC,Instrument flags,Ambient pressure (hPa),Sample flow (lpm),Bypass flow (lpm),Sample temperature (°C),Ambient temperature (°C),ASC tube jacket temperature (°C),LED temperature (°C),Box temperature (°C),Sample RH (%),Span deviation,Mass concentration (μg/m³),Mass concentration (μg/m³),Mass concentration (μg/m³)
DateTimeUTC,F1_M11,P_M11,Q1_M11,Q2_M11,T1_M11,T2_M11,T3_M11,T4_M11,T5_M11,U1_M11,ZSPAN_M11,X0_M11,X2_M11,X1_M11
2022-01-23 11:00:00,,0830.0,5.02,0.00,22.6,21.9,00.0,31.5,24.3,09.1,0000.0,0007.62,0002.84,0002.28
2022-01-23 11:01:00,,0830.0,4.99,0.00,22.6,21.9,00.0,31.5,24.3,09.2,0000.0,0008.07,0002.86,0002.24
2022-01-23 11:02:00,,0829.9,5.01,0.00,22.6,21.9,00.0,31.5,24.3,09.2,0000.0,0008.88,0002.87,0002.21
2022-01-23 11:03:00,,0830.0,5.00,0.00,22.5,21.9,00.0,31.5,24.3,09.2,0000.0,0009.12,0002.88,0002.20
2022-01-23 11:04:00,,0830.0,5.00,0.00,22.5,21.8,00.0,31.5,24.2,09.2,0000.0,0009.12,0002.89,0002.16
2022-01-23 11:05:00,,0829.9,5.01,0.00,22.5,21.8,00.0,31.5,24.2,09.2,0000.0,0009.24,0002.92,0002.15
2022-01-23 11:06:00,,0829.9,4.99,0.00,22.5,21.8,00.0,31.5,24.2,09.2,0000.0,0009.75,0002.97,0002.14
2022-01-23 11:07:00,,0829.8,5.01,0.00,22.4,21.7,00.0,31.5,24.1,09.2,0000.0,0009.81,0003.00,0002.13
2022-01-23 11:08:00,,0829.8,5.00,0.00,22.4,21.6,00.0,31.4,24.0,09.2,0000.0,0009.64,0003.03,0002.13
2022-01-23 11:09:00,,0829.8,5.00,0.00,22.3,21.5,00.0,31.4,23.9,09.3,0000.0,0009.15,0003.06,0002.15
2022-01-23 11:10:00,,0829.9,5.01,0.00,22.3,21.4,00.0,31.4,23.9,09.4,0000.0,0008.88,0003.11,0002.18
2022-01-23 11:11:00,,0829.9,4.99,0.00,22.2,21.4,00.0,31.4,23.8,09.4,0000.0,0008.85,0003.10,0002.20
2022-01-23 11:12:00,,0829.9,5.00,0.00,22.2,21.6,00.0,31.4,23.9,09.4,0000.0,0008.72,0003.08,0002.22
2022-01-23 11:13:00,,0830.0,4.99,0.00,22.3,22.3,00.0,31.4,24.1,09.4,0000.0,0007.70,0003.07,0002.24
2022-01-23 11:14:00,,0829.9,5.00,0.00,22.5,23.0,00.0,31.4,24.4,09.2,0000.0,0007.49,0003.12,0002.26
2022-01-23 11:15:00,,0829.8,5.00,0.00,22.5,22.9,00.0,31.4,24.4,09.3,0000.0,0007.73,0003.12,0002.27
2022-01-23 11:16:00,,0829.8,4.99,0.00,22.5,22.6,00.0,31.4,24.3,09.3,0000.0,0009.31,0003.13,0002.28
2022-01-23 11:17:00,,0829.8,5.01,0.00,22.4,22.3,00.0,31.4,24.1,09.4,0000.0,0008.72,0003.14,0002.29
2022-01-23 11:18:00,,0829.8,4.99,0.00,22.4,22.1,00.0,31.4,24.0,09.4,0000.0,0008.62,0003.14,0002.31
2022-01-23 11:19:00,,0829.7,5.00,0.00,22.3,21.9,00.0,31.4,23.9,09.4,0000.0,0008.50,0003.12,0002.33
2022-01-23 11:20:00,,0829.7,5.00,0.00,22.2,21.7,00.0,31.4,23.8,09.5,0000.0,0008.72,0003.13,0002.35
2022-01-23 11:21:00,,0829.7,5.00,0.00,22.2,21.5,00.0,31.3,23.7,09.6,0000.0,0008.92,0003.07,0002.36
2022-01-23 11:22:00,,0829.7,5.01,0.00,22.1,21.3,00.0,31.3,23.6,09.6,0000.0,0008.72,0003.06,0002.38
2022-01-23 11:23:00,,0829.6,5.00,0.00,22.0,21.2,00.0,31.3,23.5,09.4,0000.0,0008.81,0003.07,0002.36
2022-01-23 11:24:00,,0829.6,5.01,0.00,21.9,21.1,00.0,31.2,23.4,09.3,0000.0,0009.13,0003.11,0002.34
2022-01-23 11:25:00,,0829.6,5.00,0.00,21.9,21.0,00.0,31.2,23.4,09.3,0000.0,0009.20,0003.10,0002.31
2022-01-23 11:26:00,,0829.6,4.99,0.00,21.8,20.9,00.0,31.2,23.4,09.4,0000.0,0009.15,0003.11,0002.29
2022-01-23 11:27:00,,0829.6,5.01,0.00,21.8,20.9,00.0,31.1,23.3,09.6,0000.0,0007.24,0003.11,0002.28
2022-01-23 11:28:00,,0829.6,4.99,0.00,21.8,20.9,00.0,31.1,23.3,09.6,0000.0,0006.82,0003.08,0002.27
2022-01-23 11:29:00,,0829.6,4.99,0.00,21.9,21.7,00.0,31.1,23.6,09.7,0000.0,0006.82,0003.06,0002.26
2022-01-23 11:30:00,,0829.6,5.01,0.00,22.0,22.6,00.0,31.1,23.9,09.7,0000.0,0006.66,0003.02,0002.27
2022-01-23 11:31:00,,0829.6,5.00,0.00,22.2,22.9,00.0,31.2,24.1,09.7,0000.0,0006.19,0002.98,0002.28
2022-01-23 11:32:00,,0829.5,5.01,0.00,22.2,22.5,00.0,31.2,24.0,09.6,0000.0,0005.45,0002.97,0002.27
2022-01-23 11:33:00,,0829.6,5.00,0.00,22.1,22.2,00.0,31.2,23.9,09.7,0000.0,0005.55,0002.95,0002.27
2022-01-23 11:34:00,,0829.5,5.00,0.00,22.1,21.9,00.0,31.1,23.7,09.7,0000.0,0005.84,0002.94,0002.30
2022-01-23 11:35:00,,0829.6,5.01,0.00,22.0,21.7,00.0,31.1,23.6,09.7,0000.0,0005.78,0002.91,0002.34
2022-01-23 11:36:00,,0829.5,4.99,0.00,22.0,21.5,00.0,31.1,23.5,09.5,0000.0,0006.30,0002.82,0002.35
2022-01-23 11:37:00,,0829.6,4.99,0.00,21.9,21.3,00.0,31.1,23.5,09.5,0000.0,0006.07,0002.73,0002.36
2022-01-23 11:38:00,,0829.5,5.01,0.00,21.9,21.2,00.0,31.0,23.4,09.5,0000.0,0005.91,0002.67,0002.36
2022-01-23 11:39:00,,0829.6,4.98,0.00,21.8,21.1,00.0,31.0,23.4,09.5,0000.0,0005.77,0002.61,0002.34
2022-01-23 11:40:00,,0829.6,5.01,0.00,21.8,21.0,00.0,31.0,23.3,09.5,0000.0,0005.58,0002.57,0002.33
2022-01-23 11:41:00,,0829.6,4.99,0.00,21.7,20.9,00.0,31.0,23.3,09.4,0000.0,0005.54,0002.52,0002.28
2022-01-23 11:42:00,,0829.6,5.02,0.00,21.7,20.9,00.0,30.9,23.2,09.1,0000.0,0005.08,0002.40,0002.17
2022-01-23 11:43:00,,0829.6,4.99,0.00,21.6,20.8,00.0,30.9,23.2,09.0,0000.0,0004.83,0002.24,0002.04
2022-01-23 11:44:00,,0829.6,4.99,0.00,21.6,20.9,00.0,30.9,23.2,08.9,0000.0,0004.67,0002.10,0001.91
2022-01-23 11:45:00,,0829.6,4.99,0.00,21.7,21.6,00.0,30.9,23.4,08.8,0000.0,0003.97,0001.95,0001.79
2022-01-23 11:46:00,,0829.6,5.02,0.00,21.9,22.5,00.0,30.9,23.8,08.6,0000.0,0003.43,0001.79,0001.64
2022-01-23 11:47:00,,0829.6,5.00,0.00,22.0,22.8,00.0,31.0,24.0,08.6,0000.0,0002.15,0001.66,0001.51
2022-01-23 11:48:00,,0829.5,5.01,0.00,22.0,22.5,00.0,31.0,23.9,08.6,0000.0,0002.23,0001.57,0001.41
2022-01-23 11:49:00,,0829.5,5.00,0.00,22.0,22.2,00.0,31.0,23.8,08.6,0000.0,0002.47,0001.46,0001.29
2022-01-23 11:50:00,,0829.5,5.00,0.00,21.9,21.9,00.0,31.0,23.6,08.8,0000.0,0002.34,0001.35,0001.20
2022-01-23 11:51:00,,0829.5,4.99,0.00,21.9,21.6,00.0,30.9,23.5,08.9,0000.0,0003.35,0001.26,0001.13
2022-01-23 11:52:00,,0829.5,5.02,0.00,21.8,21.4,00.0,30.9,23.3,08.9,0000.0,0003.75,0001.18,0001.08
2022-01-23 11:53:00,,0829.5,4.98,0.00,21.8,21.2,00.0,30.9,23.3,08.8,0000.0,0003.70,0001.15,0001.05
2022-01-23 11:54:00,,0829.5,4.99,0.00,21.7,21.1,00.0,30.9,23.3,08.8,0000.0,0003.68,0001.15,0001.06
2022-01-23 11:55:00,,0829.5,5.01,0.00,21.7,21.0,00.0,30.9,23.2,08.9,0000.0,0003.72,0001.18,0001.08
2022-01-23 11:56:00,,0829.5,5.00,0.00,21.6,21.0,00.0,30.8,23.2,08.9,0000.0,0003.78,0001.22,0001.10
2022-01-23 11:57:00,,0829.5,4.99,0.00,21.6,20.9,00.0,30.8,23.2,09.0,0000.0,0003.90,0001.27,0001.13
2022-01-23 11:58:00,,0829.5,5.00,0.00,21.6,20.9,00.0,30.8,23.2,09.0,0000.0,0003.88,0001.28,0001.14
2022-01-23 11:59:00,,0829.4,5.01,0.00,21.6,20.9,00.0,30.8,23.2,09.0,0000.0,0003.70,0001.29,0001.17
